Location: Lake Lucerne
(45.5315°N, 88.8489°W)
Time: 00:34:30
(UTC-05:00)

Tiangong - Visible Passes

Search period start: 18 September 2024 00:00
Search period end: 28 September 2024 00:00
Orbit: 373 x 377 km, 41.5° (Epoch: 17 September)

Date Brightness Start Highest point End Pass type
(mag) Time Alt. Az. Time Alt. Az. Time Alt. Az.
18 Sep 0.1 19:41:39 10° S 19:43:02 12° SSE 19:44:24 10° SE visible
18 Sep 0.8 21:16:17 10° SW 21:16:25 11° SW 21:16:25 11° SW visible
19 Sep -0.8 20:13:48 10° SW 20:16:23 24° SSE 20:16:42 24° SSE visible
20 Sep -0.6 20:46:52 10° WSW 20:48:47 28° SW 20:48:47 28° SW visible
21 Sep -1.0 19:44:02 10° SW 19:46:47 29° SSE 19:48:40 16° ESE visible
21 Sep 0.8 21:20:09 10° WSW 21:20:39 14° WSW 21:20:39 14° WSW visible
22 Sep -1.5 20:17:02 10° WSW 20:19:57 38° S 20:20:23 35° SSE visible
23 Sep -1.1 19:13:54 10° WSW 19:16:44 34° S 19:19:36 10° ESE visible
23 Sep -0.4 20:50:10 10° WSW 20:51:57 25° SW 20:51:57 25° SW visible
24 Sep -1.3 19:46:47 10° WSW 19:49:41 38° S 19:51:26 19° SE visible
25 Sep -0.9 20:19:46 10° WSW 20:22:29 28° SSW 20:22:46 28° S visible
26 Sep -1.1 19:16:07 10° WSW 19:18:58 35° S 19:21:49 10° ESE visible
26 Sep 0.5 20:53:02 10° WSW 20:54:01 14° SW 20:54:01 14° SW visible
27 Sep -0.4 19:48:57 10° WSW 19:51:29 23° SSW 19:53:15 15° SSE visible
